Погода в Турбате

Пакистан     25°58′02″N   63°02′37″E
темп.,
°C
ветер,
м/с
пор.,
м/с
влажн.,
%
обл.,
%
осадки,
мм/ч
давл.,
гПа
погр.,
м
19 января, вт
вт1923:00+18вюв34880 0.0 101671
02:00+19вюв348852 0.0 1016198
05:00+18юв238868 0.0 1015102
08:00+19ююв228687 0.1 1016143
11:00+20ююв227093 0.1 1017656
14:00+23ююв225686 0.0 1014963
17:00+25ююв344243 0.0 1013965
20:00+19ююв34820 0.0 101691
20 января, ср
ср2023:00+17в12900 0.0 101623
02:00+16всв11940 0.0 101623
05:00+15св11940 0.0 101623
08:00+15св11900 0.0 101723
11:00+24всв13360 0.0 1017618
14:00+28ююз43260 0.0 10151323
17:00+28зюз44230 0.0 10131583
20:00+20ю34770 0.0 101683
21 января, чт
чт2123:00+18ююв12850 0.0 101623
02:00+16вюв11920 0.0 101523
05:00+15вюв11930 0.0 101523
08:00+15всв11920 0.0 101623
11:00+22ююз22530 0.0 1016618
14:00+27зюз55310 0.0 10131096
17:00+27зюз67240 0.0 10121161
20:00+19ю456316 0.0 101476
22 января, пт
пт2223:00+17юз11818 0.0 101423
02:00+15всв01880 0.0 101323
05:00+14ссв11890 0.0 101223
08:00+14зсз11870 0.0 101423
11:00+25св77240 0.0 10161076
14:00+27св55130 0.0 10141578
17:00+23с1214130 0.0 1013882
20:00+15ссв1826190 0.0 1018545
23 января, сб
сб2323:00+13ссв2029180 0.0 1020580
02:00+11с2232170 0.0 1021585
05:00+10с2333130 0.0 1021620
08:00+10с2433100 0.0 1022655
11:00+16ссв233050 0.0 1022877
14:00+19ссв192450 0.0 10191046
17:00+18ссв131960 0.0 10181164
20:00+11с511110 0.0 1020310